Alexandria, MN

10:03 PM CDT on July 29, 2016 (GMT -0500)
Chandler

Weather History for KAXN - January, 2013

Change the Weather History Date:

Sunday, January 20, 2013

  Actual Average Record
Temperature  
Mean Temperature -3 °F -  
Max Temperature 3 °F 20 °F 40 °F (1964)
Min Temperature -11 °F 0 °F -31 °F (1954)
Degree Days  
Heating Degree Days 68    
Moisture  
Dew Point -10 °F    
Average Humidity 71    
Maximum Humidity 80    
Minimum Humidity 60    
Precipitation  
Precipitation 0.00 in - - ()
Sea Level Pressure  
Sea Level Pressure 30.36 in    
Wind  
Wind Speed 14 mph (WNW)    
Max Wind Speed 22 mph    
Max Gust Speed 29 mph    
Visibility 7 miles    
Events      
Averages and records for this station are not official NWS values.
T = Trace of Precipitation, MM = Missing Value Source: NWS Daily Summary

Daily Weather History Graph

Daily Weather History Graph

Search for Another Location

Airport or City:

Trip Planner

Search our weather history database for the weather conditions in past years. The results will help you decide how hot, cold, wet, or windy it might be!

Date:

Astronomy

Jan. 20, 2013 Rise Set
Actual Time 7:55 AM CST 5:10 PM CST
Civil Twilight 7:22 AM CST 5:43 PM CST
Nautical Twilight 6:45 AM CST 6:20 PM CST
Astronomical Twilight 6:10 AM CST 6:55 PM CST
Moon 12:13 PM CST (1/20) 2:26 AM CST (1/20)
Length of Visible Light 10h 20m
Length of Day
9h 15m
Waxing Gibbous, 66% of the Moon is Illuminated
Jan 20
Waxing Gibbous
Jan 26
Full
Feb 3
Last Quarter
Feb 10
New
Feb 17
First Quarter

Hourly Weather History & Observations

Time (CST) Temp. Windchill Dew Point Humidity Pressure Visibility Wind Dir Wind Speed Gust Speed Precip Events Conditions
12:53 AM -4.0 °F -25.2 °F -9.9 °F 76% 30.37 in 10.0 mi NW 16.1 mph - N/A   Clear
1:53 AM -4.0 °F -25.2 °F -11.0 °F 72% 30.39 in 10.0 mi NW 16.1 mph - N/A   Clear
2:53 AM -5.1 °F -22.5 °F -11.0 °F 76% 30.41 in 10.0 mi NW 10.4 mph - N/A   Clear
3:53 AM -5.1 °F -23.5 °F -11.0 °F 76% 30.42 in 10.0 mi WNW 11.5 mph - N/A   Clear
4:53 AM -5.1 °F -20.4 °F -11.0 °F 76% 30.40 in 10.0 mi NW 8.1 mph - N/A   Partly Cloudy
5:53 AM -5.1 °F -17.6 °F -11.0 °F 76% 30.41 in 10.0 mi WNW 5.8 mph - N/A   Mostly Cloudy
6:53 AM -5.1 °F -20.4 °F -11.0 °F 76% 30.41 in 10.0 mi WNW 8.1 mph - N/A   Partly Cloudy
7:53 AM -5.1 °F -22.5 °F -11.0 °F 76% 30.44 in 10.0 mi WNW 10.4 mph - N/A   Overcast
8:53 AM -5.1 °F -22.5 °F -9.9 °F 80% 30.46 in 10.0 mi WNW 10.4 mph - N/A   Clear
9:53 AM -2.9 °F -20.8 °F -9.0 °F 75% 30.47 in 10.0 mi WNW 11.5 mph - N/A   Mostly Cloudy
10:53 AM -0.9 °F -18.3 °F -9.0 °F 69% 30.48 in 10.0 mi West 11.5 mph - 0.00 in   Mostly Cloudy
11:53 AM 1.0 °F -17.3 °F -7.1 °F 69% 30.45 in 10.0 mi WNW 13.8 mph - N/A   Overcast
12:53 PM 1.9 °F -16.2 °F -5.1 °F 72% 30.42 in 5.0 mi WNW 13.8 mph - N/A   Haze
1:00 PM 3.2 °F -15.3 °F -5.8 °F 66% 30.29 in 5.0 mi WNW 15.0 mph - N/A   Haze
1:11 PM 3.2 °F -16.5 °F -4.0 °F 72% 30.28 in 2.0 mi WNW 17.3 mph - N/A   Haze
1:26 PM 3.2 °F -15.9 °F -4.0 °F 72% 30.28 in 3.0 mi WNW 16.1 mph - N/A   Haze
1:50 PM 3.2 °F -16.5 °F -5.8 °F 66% 30.27 in 2.5 mi WNW 17.3 mph 23.0 mph N/A   Haze
1:53 PM 3.0 °F -17.3 °F -4.0 °F 73% 30.40 in 3.0 mi WNW 18.4 mph - N/A   Haze
2:03 PM 3.2 °F -18.6 °F -5.8 °F 66% 30.27 in 7.0 mi NW 21.9 mph - N/A   Mostly Cloudy
2:31 PM 3.2 °F -17.1 °F -5.8 °F 66% 30.26 in 10.0 mi WNW 18.4 mph - N/A   Scattered Clouds
2:53 PM 3.0 °F -18.8 °F -6.0 °F 66% 30.39 in 5.0 mi NW 21.9 mph 27.6 mph N/A   Haze
3:12 PM 1.4 °F -19.4 °F -7.6 °F 66% 30.27 in 5.0 mi NW 18.4 mph 26.5 mph N/A   Haze
3:53 PM 1.0 °F -21.4 °F -9.9 °F 60% 30.40 in 10.0 mi WNW 21.9 mph 28.8 mph N/A   Scattered Clouds
4:53 PM -0.9 °F -23.0 °F -11.0 °F 62% 30.40 in 10.0 mi WNW 19.6 mph 27.6 mph N/A   Clear
5:53 PM -4.0 °F -25.2 °F -11.9 °F 69% 30.40 in 10.0 mi NW 16.1 mph - N/A   Clear
6:53 PM -5.1 °F -24.3 °F -11.9 °F 72% 30.40 in 10.0 mi WNW 12.7 mph - N/A   Clear
7:53 PM -6.0 °F -26.3 °F -13.0 °F 72% 30.40 in 10.0 mi NW 13.8 mph - N/A   Clear
8:53 PM -7.1 °F -29.1 °F -13.0 °F 75% 30.40 in 7.0 mi WNW 16.1 mph 23.0 mph N/A   Mostly Cloudy
9:20 PM -7.6 °F -30.5 °F -14.8 °F 71% 30.26 in 6.0 mi NW 17.3 mph - N/A   Haze
9:53 PM -8.0 °F -29.6 °F -15.0 °F 71% 30.40 in 9.0 mi WNW 15.0 mph - N/A   Mostly Cloudy
10:07 PM -7.6 °F -30.5 °F -14.8 °F 71% 30.25 in 4.0 mi WNW 17.3 mph - N/A   Haze
10:53 PM -9.0 °F -31.7 °F -16.1 °F 71% 30.39 in 5.0 mi WNW 16.1 mph - N/A   Haze
11:08 PM -9.4 °F -31.4 °F -14.8 °F 77% 30.26 in 2.0 mi WNW 15.0 mph - N/A   Haze
11:22 PM -9.4 °F -32.1 °F -16.6 °F 71% 30.26 in 1.5 mi WNW 16.1 mph 21.9 mph N/A   Haze
11:39 PM -9.4 °F -32.1 °F -16.6 °F 71% 30.26 in 2.0 mi WNW 16.1 mph - N/A   Haze
11:53 PM -11.0 °F -33.5 °F -17.0 °F 75% 30.39 in 1.8 mi WNW 15.0 mph - N/A   Haze